Погода Большая Мурта

Погода Большая Мурта : погода сейчас, прогноз погоды и архив. Всё, что Вы хотите узнать о погоде Большая Мурта!

Хотите узнать прогноз погоды Большая Мурта? Тогда Вам сюда: Погода Большая Мурта

Поиск расширенной информации на нашем сайте:

Другие новости

Новости СМИ2

Главная страница сайта

Новости сайта

02.10.2013

Напоминаем, что на нашем новом сайте вы можете получить высокодетализированные прогнозы погоды по пунктам России, СНГ и мира (включающие важные для авиации метеовеличины, такие как направление и скорость ветра, видимость, явления погоды, количество и форма облачности, нижняя и верхняя граница облачности), а также ознакомиться с разнообразными материалами по авиационной метеорологии и подборкой полезных ссылок на эту тему.

Сайт Метеоцентр.Азия посвящён разработке технологий оптимизации авиаметеорологического обслуживания, включая проектирование и перспективное создание нескольких автоматизированных авиаметеорологических систем:
- система выпуска высокодетальных прогностических карт явлений погоды для нижнего воздушного пространства по России и ближнему зарубежью;
- система верификации прогнозов TAF (выпускаемых синоптиками официальных АМСГ РФ и ближнего зарубежья) и AUTOTAF (выпускаемых сайтом Метеоцентр.Азия) - выявление ошибок, онлайн-сопоставление с фактической погодой METAR, автоматическое внесение коррективов в прогнозы при резком отклонении фактической погоды от прогноза, подсчёт оправдываемости прогнозов по элементам и в целом;
- система обработки, анализа и отображения авиаметеорологической информации для применения провайдерами метеорологической информации.

Рекомендуем: промокод связной сентябрь 2015

Погода Большая Мурта - сегодня

Время (UTC), дата Ветер
(°,м/с) 
Видим.   Явления Облачность Т
(°С)
Тd
(°С)
f(%) Тe
(°С)
Pmin
(гПа)
dP
(гПа)
Po
(мм)
O2
(г/м3)
Тmin Tmax R s Состояние
почвы
09 23.04.17 110 (В) 10 км    ясно 
+15.3 -13.5 12 +16  1017.2  -0.2  747  286           
12 23.04.17 100 (В) 10 км    9/0 верхняя 
[Ci]
+13.6 -12.9 15 +15  1018.1  0.8  747  288    +15.5       
15 23.04.17 100 (В) 20000 м    8/4 2000 м средняя, верхняя 
[Ac lent|Ci fib]
+8.3 -10.5 25 +9  1019.8  1.2  748  294           
18 23.04.17 160 (Ю) 20000 м    ясно 
+2.7 -8.2 44 +3  1021.1  0.9  749  300           
21 23.04.17 300 (СЗ) 20000 м    ясно 
-1.1 -7.8 60 -2  1022.1  0.7  749  304           
00 24.04.17 тихо ()   4000 м  дым  3/3 2000 м средняя 
[Ac trans]
+0.1 -6.3 62 1022.7  0.7  750  303  -2.7         
03 24.04.17 080 (В) 4000 м  дым  3/0 верхняя 
[Ci fib]
+10.7 -7.4 27 +12  1021.3  -0.6  750  291           
06 24.04.17 110 (В) 4000 м  дым  6/0 верхняя 
[Ci fib]
+15.3 -9.2 18 +16  1019.4  -1.4  749  286           
09 24.04.17 180 (Ю) 4000 м  дым  4/3 1000 м верхняя 
[Cu med, cong|Ci fib]
+17.6 +0.2 31 +18  1017.4  -1.9  747  283           
12 24.04.17 120 (ЮВ) 4000 м  дым  4/3 600 м кучево-дожд., средняя 
[Cb cap|Ac trans]
+17.9 -5.1 20 +19  1016.6  -0.7  747  283    +18.5       
15 24.04.17 210 (ЮЗ) 4000 м  дым  ясно 
+8.6 +0 55 +10  1017.9  0.6  747  292           
18 24.04.17 тихо ()   4000 м  дым  ясно 
+4.3 -0.1 73 +4  1019  0.7  748  297           
21 24.04.17 тихо ()   4000 м  дымка  ясно 
+1.3 -0.5 88 +1  1020.5  1.2  748  300           
00 25.04.17 290 (З) 4000 м  дымка  ясно 
+2.4 +0.5 87 +3  1023.1  2.7  750  300  -0.6         
03 25.04.17 310 (СЗ) 10 км    ясно 
+13.7 +2.2 46 +14  1024.1  1.8  752  288           
06 25.04.17 270 (З) 10 км    3/3 1000 м 
[Cu med, cong]
+19.6 -0.3 26 +21  1024.7  0.9  753  283           
09 25.04.17 300 (СЗ) 20000 м    9/8 1000 м верхняя 
[Cu med, cong|Ci fib]
+21.1 +0.1 25 +21  1024.6  0.1  753  281           
12 25.04.17 280 (З) 20000 м    9/3 2000 м средняя, верхняя 
[Ac lent|Ci]
+18.4 -0.1 29 +19  1025.8  753  284    +21.1       
15 25.04.17 250 (З) 20000 м    6/3 600 м кучево-дожд., средняя, верхняя 
[Cb cap|Ac lent|Ci fib]
+13.1 +0.2 41 +14  1027.7  1.4  754  290           
18 25.04.17 270 (З) 20000 м    ясно 
+6.5 +0.8 67 +7  1029.1  0.9  755  297           
21 25.04.17 тихо ()   20000 м    ясно 
+2.4 -0.5 81 +2  1030.1  0.6  756  302           
00 26.04.17 070 (В) 10 км    8/8 2000 м средняя 
[Ac lent]
+3.8 +0.4 78 +5  1030.5  0.5  756  300  +1.3         
03 26.04.17 140 (ЮВ) 4000 м  дым  3/3 2000 м средняя 
[Ac trans]
+14.9 +0.3 37 +16  1029.1  -0.5  756  289           
06 26.04.17 220 (ЮЗ) 10 км    9/0 верхняя 
[Ci]
+20.8 +0.3 25 +21  1026.5  -2.1  754  282           
09 26.04.17 250 (З) 10 км    9/0 верхняя 
[Ci]
+22 -1.2 21 +22  1024  -2.4  752  281           
Время (UTC), дата Ветер
(°,м/с) 
Видим.   Явления Облачность Т
(°С)
Тd
(°С)
f(%) Тe
(°С)
Pmin
(гПа)
dP
(гПа)
Po
(мм)
O2
(г/м3)
Тmin Tmax R s Состояние
почвы

Для получения пояснительной информации подведите курсор к названию столбца.

ПОГОДА Большая Мурта - архив

Всё, что Вы хотите узнать о погоде Большая Мурта - удобно и подробно!

Выберите нужную дату (начиная с 1 января 2015* года) и нажмите кнопку "Найти".
Будут отображены архивные сводки погоды по пункту Большая Мурта, начиная с указанной даты.


Отображать данные в формате CSV (для использования в таблицах Excel)


Внимание! Наш архив погоды предназначен исключительно для личного некоммерческого использования в познавательных целях. Если Вам необходимы официальные справки о состоянии погоды (для производственных, юридических, коммерческих и т.п. целей), обращайтесь в органы Росгидромета.

*Примечание: данная дата относится к архиву по метеостанциям СССР (Россия, СНГ, Балтия).
Архив по метеостанциям Зарубежной Европы и Азии (кроме Китая) хранится 10 дней, по другим регионам земного шара (Китай, Африка, Америка, Австралия, Океания) - 1 день.

Большая Мурта - район местоположения метеостанции


Название, широта, долгота, высота метеостанции:
Большая Мурта 56.9°ш. 93.1°д. 180 м над ур. моря [Российская Федерация]

Дополнительная информация

В oтличие oт бoльшинства пoгoдных сайтoв мы публикуем пoдрoбную метеoинфoрмацию в детальнoм прoфессиoнальнoм фoрмате.

Характеристики температуры и влажнoсти вoздуха измеряются на высoте 2 м в тени вдали oт зданий и деревьев.
Скoрoсть ветра измеряется на высoте 10 м (на урoвне рoста челoвека скoрoсть ветра ниже в 1.5-2 раза). Если метеoстанция нахoдится в гoрoде или в лесу, тo скoрoсть ветра занижена на 2-4 м/с пo сравнению с oткрытым местoм. Скoрoсть ветра над акватoриями крупных рек и oзёр, а также на вершинах хoлмoв на 2-5 м/с выше, чем в oбычных услoвиях.
Атмoсфернoе давление в разных тoчках местнoсти мoжет значительнo oтличаться oт давления на метеoстанции, в зависимoсти oт услoвий рельефа (при пoдъёме на 10 м давление пoнижается примернo на 1 мм рт.ст.).